STARLINK-11531, 62841

Orbit data source: Space-Track

STARLINK-11531, 62841 is a payload satellite owned by SpaceX/Seattle (US) in LEO that was launched on Mon, 27 Jan 2025 UTC via an FALCON 9 launch vehicle from the Air Force Eastern Test Range (AFETR). Payload-class satellites include a variety of spacecraft equipped with specific instruments for various scientific and technological missions. These include communications satellites like Starlink; space stations such as the ISS; scientific satellites like the Hubble; Earth observation satellites from companies like Planet Labs, Umbra, and HawkEye 360; GPS; miniature CubeSats for education and research; and military/defense satellites.

Loading next visibility...
Identifier
62841, 2025-019N
Orbit
LEO
Last TLE update
1 day ago
Origin
Manufacturer
SpaceX/Seattle
Mission
Operational Commercial Communications
Bus & Motor
STARLINK V2M, Unknown motor
Mass
730 kg wet, ~700 kg dry
Launch date (UTC)
2025-01-27 (5 months ago)
Launch vehicle
FALCON 9
Launch site
Air Force Eastern Test Range (AFETR)
Object type
Payload
Rocket body
Debris
Shape & HBR
Box + 2 Pan, 29 m
Radar Cross Section
36.964 m², Large (>1 m²)

Expand to show TLE details & history

TLE from 1 day ago
0 STARLINK-11531
1 62841U 25019N   25182.94726916  .00165467  00000-0  12623-2 0  9995
2 62841  43.0044  17.5357 0004553 267.8959  92.1387 15.70929548 24443
Epoch: 2025-07-01T22:44Z
TLE epoch observation values (Epoch: 2025-07-01T22:44:04.055Z)
Latitude
-0.00004°
Longitude
116.28335°
Altitude
356.127 km
Speed
7.697 km/s
True Right ascension
01h 10m 08s
True Declination
0° 00' 00"
Sunlit
Object was in daylight at epoch
Visualization orbit readout
Latitude
-20.83711°
Longitude
84.32181°
Altitude
357.825 km
Speed
7.696 km/s
Apparent Right ascension
02h 02m 25s
Apparent Declination
-44° 50' 57"
Sunlit
Object is in full shadow
Visualization observer readout
Local Sidereal Time
18:24:11
Azimuth
118.619° SE
Elevation
-42.727°
Doppler factor
1
Orbital elements
Apogee altitude
361.287 km
Perigee altitude
355.153 km
Semi-major axis
6,736.357 km
Eccentricity
0.00046
Inclination
43.0044°
RAAN
17.5357°
Arg. of periapsis
267.8959°
True anomaly
Unknown
Mean anomaly
92.1387°
Eccentric anomaly
Unknown
Mean motion
3.9256 °/min
Orbital period
91.71 mins
BSTAR
0.0012623
Loading maneuver chart data...
Loading SW <> Apogee altitude chart data...
Loading historical data...
Loading historical data...
Loading historical data...
Loading historical data...
Loading historical data...
Loading historical data...
Loading historical data...

STARLINK-11531 Visibility forecast

Observer location: undefined°, undefined°

Span
Click to sort rows by Start time (UTC) header in descending order
Start Az.
Max El. time (UTC)
Max El. Az.
Max El.
End time (UTC)
End Az.
4 mins2025-07-03 16:09:29.098Z221.015° SW2025-07-03 16:11:29.098Z146.825° SSE34.747°2025-07-03 16:13:29.098Z85.389° E
4 mins2025-07-03 19:22:29.098Z306.352° NW2025-07-03 19:23:29.098Z347.235° N36.35°2025-07-03 19:26:29.098Z84.952° E
4 mins2025-07-03 20:58:29.098Z267.509° W2025-07-03 20:59:29.098Z231.218° WSW35.516°2025-07-03 21:02:29.098Z129.73° SE
|